PRAETORIAN SDA_603

Last updated on Mon Sep 07 2026 00:03:39 GMT+0000 (Coordinated Universal Time)

1 65566U 25203B 26249.60077544 .00000024 00000+0 10651-4 0 9998 2 65566 81.3025 295.3311 0009066 337.8114 22.2649 13.83965556 49965
UTC large
Height (km)
Speed (km/s)
/
Latitude / Longitude
Inclination (degrees)
Orbital Period (minutes)
Azimuth
Elevation
Range (km)
Doppler Factor

Next 0 passes for location: London (51.5072 / 0.1276)

No passes found over London.
PRAETORIAN SDA_603